Tracking 21473 objects as of 27-Sep-2020
HD Live streaming from Space Station
objects crossing your sky now

STARLINK-1410

Track STARLINK-1410 now!
10-day predictions
STARLINK-1410 is classified as:


NORAD ID: 45705
Int'l Code: 2020-035BA
Perigee: 556.0 km
Apogee: 557.6 km
Inclination: 53.0 °
Period: 95.6 minutes
Semi major axis: 6927 km
RCS: Unknown
Launch date: June 4, 2020
Source: United States (US)
Launch site: AIR FORCE EASTERN TEST RANGE (AFETR)
aabbcc
Your satellite tracking list
Your tracking list is empty




NASA's NSSDC Master Catalog

Two Line Element Set (TLE):
1 45705U 20035BA  20271.58337963 +.00006188 +00000-0 +44327-3 0  9993
2 45705 053.0013 356.0623 0001144 096.6401 015.3501 15.05599795001759
Source of the keplerian elements: AFSPC